Theta_e
330 331 329 327 326 324 322 323 323 320 320 322 321 320 320 321 320 319 318 317 316 315 313 312 310 309 308 307 307 307 307 308 308 308 307 307 306 306 305 304 303 304 305 305 305 305 304 303 303 304 305 305 304 304 304 304 304 303 303 303 301 303 301 300 298 299 301 304 303 302 304 304 302 304 302 303 304 304 304 305 306 306 305 305 305
331 330 331 326 323 322 322 321 320 319 319 320 320 319 320 320 320 318 318 317 316 314 312 312 310 309 307 306 307 306 307 307 307 307 306 306 306 306 305 304 303 303 304 303 304 304 304 303 302 304 304 303 304 303 303 302 302 302 301 302 301 302 303 301 299 298 298 302 301 303 303 304 301 303 303 303 304 304 304 305 305 304 303 304 304
330 329 325 322 319 321 322 319 317 319 319 320 319 318 320 320 319 317 316 315 315 314 313 312 310 308 307 307 306 306 306 307 307 306 306 305 305 305 305 304 303 303 303 303 302 304 303 304 303 304 305 305 304 304 304 304 303 302 302 303 302 302 302 303 301 298 299 299 302 301 302 303 303 302 303 304 304 304 303 303 302 303 304 304 304
328 326 322 319 318 319 321 318 318 319 320 319 319 320 319 319 317 316 315 315 314 315 313 311 310 309 308 307 307 306 307 307 306 305 305 305 304 304 304 304 303 303 302 302 303 303 303 303 304 305 304 303 303 303 303 304 303 302 302 303 302 302 303 303 302 300 300 299 301 300 302 301 302 303 304 304 302 302 302 303 303 302 303 304 304
326 325 321 318 318 318 318 318 318 320 320 320 319 319 319 318 317 315 315 315 314 314 312 312 311 309 309 307 307 307 307 307 305 305 305 306 305 304 303 303 303 303 304 303 303 303 303 303 303 304 304 303 303 302 303 303 303 303 302 302 301 302 303 303 302 302 301 300 300 302 303 302 303 303 302 300 302 302 303 302 302 302 303 304 304
325 322 319 318 318 318 318 318 319 319 319 319 319 319 318 318 316 315 314 314 314 313 312 312 310 309 309 308 308 307 307 307 305 305 304 305 305 305 304 304 303 303 303 303 304 304 304 304 304 304 304 303 303 303 304 303 304 303 302 302 302 303 303 302 302 302 301 300 301 300 302 301 301 302 302 302 301 300 300 301 302 303 303 303 303
321 320 320 321 321 319 318 320 319 319 318 319 319 318 317 317 315 314 314 314 313 312 312 311 311 310 309 309 308 308 307 306 305 305 305 305 305 305 305 304 303 303 303 303 303 304 304 305 305 304 303 303 302 302 303 303 303 303 302 302 302 302 302 301 301 301 301 300 300 300 300 302 301 299 300 303 301 300 299 299 299 302 302 301 301
320 320 320 320 321 319 319 321 319 317 318 318 317 317 317 316 315 314 314 313 313 312 311 311 311 310 310 309 308 308 307 305 305 305 305 306 306 305 305 305 304 303 304 304 304 304 304 305 304 303 302 301 302 301 301 301 303 302 301 302 301 301 300 300 300 299 299 299 298 298 299 299 300 301 302 301 299 299 300 299 297 298 299 301 302
321 321 321 319 319 320 321 320 319 317 316 316 316 317 316 316 314 314 313 313 313 312 312 311 310 310 309 309 308 308 307 306 305 306 306 305 306 305 305 304 304 303 303 303 303 303 304 304 303 302 301 299 298 299 298 299 301 299 300 300 299 299 299 299 299 298 298 298 297 299 298 298 298 298 298 297 296 296 299 300 299 299 299 300 301
321 321 321 321 320 320 320 319 317 316 315 314 315 316 315 315 314 313 312 312 312 312 312 311 310 310 309 308 309 308 307 307 305 302 302 306 306 306 306 305 305 304 304 303 303 303 303 302 301 301 301 299 297 295 294 295 296 299 298 298 297 298 298 298 297 297 297 296 296 297 296 296 296 298 298 298 299 299 299 299 297 298 299 299 301
321 321 321 320 319 318 317 316 315 314 314 313 314 314 314 314 313 311 312 312 312 311 311 310 310 310 309 308 308 308 307 306 298 296 296 299 306 307 306 305 305 304 304 304 302 303 304 303 304 302 303 302 301 295 295 294 293 294 294 295 297 297 297 296 296 297 295 296 297 297 296 296 296 298 298 297 299 298 298 298 298 298 297 296 295
320 320 318 318 317 315 314 314 313 313 312 312 312 313 313 312 311 311 311 311 311 312 311 310 310 310 309 309 309 308 308 302 295 295 296 296 300 307 307 306 306 305 304 304 303 303 303 303 303 303 301 301 303 303 300 295 293 293 292 292 291 292 293 296 296 295 296 296 297 297 296 296 296 298 297 297 297 298 299 298 298 298 298 296 296
319 318 316 316 316 315 313 312 312 312 312 312 312 311 311 310 310 310 311 312 311 310 310 309 309 309 309 308 308 307 308 296 294 294 294 294 295 301 307 306 305 305 305 304 304 303 304 304 304 304 302 299 302 302 302 303 298 294 295 294 293 292 290 289 292 297 298 298 297 296 296 296 296 296 297 297 299 298 297 297 298 299 298 297 297
318 315 314 315 314 312 311 311 310 311 311 311 310 310 309 309 310 311 311 311 310 310 310 310 310 309 309 308 308 308 308 296 294 293 294 293 294 296 308 306 306 305 304 304 304 303 303 304 303 303 304 303 302 302 302 302 303 302 302 302 302 300 292 290 289 290 296 299 298 297 297 298 295 296 298 299 298 296 296 296 299 298 298 298 300
317 315 314 314 313 311 310 310 310 310 310 309 309 309 309 309 310 310 310 309 309 308 309 309 309 309 309 309 308 307 309 294 293 293 293 292 293 294 308 307 307 306 306 305 305 305 303 303 304 304 303 302 300 300 301 302 302 302 301 301 302 303 302 301 300 300 300 300 300 299 299 299 298 298 299 299 299 299 299 299 300 300 300 302 301
313 312 312 313 312 310 310 310 309 309 308 308 308 308 309 309 309 309 309 309 309 309 309 309 308 308 308 308 308 306 309 292 293 292 292 292 292 302 306 307 306 306 306 305 305 304 303 304 304 303 303 302 298 288 294 301 303 301 301 302 303 303 303 301 295 296 300 301 301 301 300 300 295 299 299 299 299 300 300 302 302 300 298 297 296
315 313 312 312 311 310 310 309 308 307 306 306 306 307 308 308 309 309 308 308 307 307 308 307 308 307 307 307 307 307 307 295 292 292 292 291 295 303 305 306 306 306 306 305 305 305 303 303 303 302 302 303 295 289 290 291 302 301 301 302 302 302 301 303 295 291 291 291 292 292 292 291 291 291 291 291 297 299 300 298 297 298 296 295 296
317 315 313 310 309 309 310 309 307 306 306 305 305 306 307 307 308 308 307 307 306 306 307 307 308 308 307 307 307 306 307 298 291 292 292 291 298 304 305 305 306 305 305 305 305 305 304 302 303 302 302 303 289 288 290 297 302 301 301 301 301 301 301 302 303 302 296 295 294 292 292 292 292 293 293 293 293 297 299 295 298 297 296 296 294
313 312 310 308 308 308 309 308 307 306 305 306 306 306 306 306 306 306 305 304 304 305 305 306 307 307 308 307 306 307 306 300 291 292 291 291 298 305 305 304 303 303 303 303 304 304 303 299 299 300 302 299 285 290 288 295 303 301 301 301 299 300 299 301 301 300 301 302 303 303 302 300 303 303 302 295 294 298 300 299 299 297 295 296 295
315 314 312 310 308 307 307 306 305 304 304 305 306 306 306 306 305 304 303 303 303 304 304 305 305 305 306 306 306 307 307 305 298 291 292 291 293 304 305 303 302 302 302 302 302 303 302 302 299 289 288 288 289 288 290 289 299 302 303 301 299 297 299 300 300 300 301 302 302 302 302 302 302 302 302 302 302 301 301 301 300 298 297 296 296
316 314 312 311 309 307 306 305 304 304 304 305 305 305 305 305 304 303 301 301 302 302 303 304 304 304 305 305 306 306 307 305 301 290 292 292 292 294 305 303 302 302 302 301 302 301 301 301 302 293 288 290 289 288 289 289 290 301 302 300 299 299 294 299 299 298 301 302 301 301 301 300 301 301 300 300 299 300 301 302 301 300 299 297 297
314 313 311 310 309 308 306 305 304 304 304 304 303 303 304 305 303 302 301 301 301 302 303 303 302 303 303 304 305 305 306 303 304 292 291 291 291 290 301 304 303 303 302 302 301 302 302 301 303 295 288 290 289 289 288 290 288 299 305 292 288 287 297 298 301 301 301 300 300 299 299 299 298 299 298 298 298 299 301 301 301 301 301 301 299
311 310 309 308 308 307 305 303 303 304 304 304 303 303 304 304 303 302 301 301 301 301 301 301 302 301 302 302 304 305 305 303 297 298 291 290 290 290 291 297 294 303 303 301 301 301 303 302 302 290 289 289 289 289 290 288 289 298 292 289 290 287 291 300 300 301 299 299 300 299 298 298 298 297 297 297 299 301 301 301 301 301 301 301 301
313 310 309 309 308 306 304 303 304 305 305 304 304 305 304 304 302 301 301 301 300 299 299 300 300 300 300 300 302 302 303 302 296 295 295 289 290 289 290 289 290 301 302 302 302 301 301 302 300 289 289 289 288 288 289 289 296 290 288 289 288 289 297 301 300 300 298 298 297 297 298 298 298 298 298 300 300 302 301 301 301 301 301 301 301
311 310 310 309 308 307 305 306 306 306 306 306 305 305 304 302 300 301 301 300 300 299 298 299 298 299 299 299 300 300 301 301 300 295 292 290 289 289 289 288 290 289 299 301 302 302 295 288 287 288 289 289 288 288 289 289 287 288 289 288 291 298 301 300 299 300 298 297 297 298 298 298 299 300 302 302 302 302 301 301 301 301 301 302 302
312 311 310 308 307 306 306 305 306 307 307 306 306 304 302 301 300 301 301 301 300 299 297 297 297 298 298 299 299 300 301 301 300 298 295 294 291 289 289 289 290 291 293 299 289 285 287 289 286 286 287 290 297 301 301 304 293 289 289 290 300 300 301 300 300 298 297 297 297 297 298 300 300 301 302 302 301 300 300 299 298 299 300 299 298
310 310 309 307 306 306 305 304 305 305 305 305 305 304 303 302 302 301 302 300 299 298 298 297 296 297 297 298 299 299 299 298 298 298 296 295 294 295 294 295 291 291 295 297 295 297 296 294 296 293 293 290 291 291 293 295 298 300 301 300 301 302 302 300 299 299 299 299 299 299 300 300 302 301 300 300 300 300 301 299 298 298 299 298 297
310 310 308 306 305 305 305 298 302 305 305 305 304 304 304 304 302 301 300 299 298 297 298 297 296 297 297 298 298 298 297 296 297 298 296 296 295 296 296 296 296 296 296 297 299 298 299 294 293 297 299 300 300 300 300 301 301 299 301 301 301 301 299 297 296 301 302 301 300 300 299 301 299 299 300 300 299 300 301 300 299 298 298 298 296
310 310 309 308 307 305 305 304 305 304 304 305 305 305 303 302 301 301 302 301 300 298 298 297 297 298 298 297 296 296 296 295 297 294 298 293 295 295 295 295 297 297 295 293 299 300 300 298 298 298 298 297 300 301 302 301 302 303 303 303 303 302 302 301 301 300 300 299 299 299 298 299 299 299 299 299 299 299 301 300 300 299 299 298 296
312 310 309 308 307 306 306 305 305 304 304 304 304 305 296 296 300 302 301 296 294 294 294 299 299 299 297 298 299 297 296 297 292 292 291 291 291 292 292 293 293 296 292 288 294 299 298 296 297 296 298 299 298 297 297 300 300 299 301 295 299 301 300 300 300 300 299 298 299 298 299 297 299 299 299 298 298 299 299 296 299 300 298 296 295
310 310 309 309 306 306 307 306 305 305 305 304 305 303 302 300 294 293 295 295 293 291 292 293 292 293 297 297 297 292 293 291 290 291 291 291 291 290 290 290 290 288 288 293 293 292 293 294 295 296 296 298 295 296 296 294 296 295 299 299 300 299 293 301 300 299 297 296 296 297 296 298 298 299 298 298 298 299 300 300 299 299 298 297 295
309 309 308 307 304 305 306 305 305 305 305 305 305 303 302 300 299 293 291 292 291 291 291 291 291 292 292 294 297 299 293 290 291 291 291 291 290 290 289 289 288 288 288 290 291 292 293 293 294 295 297 296 295 295 296 297 295 297 297 297 297 297 297 297 300 301 299 298 297 296 297 297 298 297 298 298 295 298 299 297 298 299 298 298 297
310 308 307 306 304 304 304 305 304 305 304 304 305 305 303 300 298 298 296 291 291 291 291 291 291 291 291 292 294 294 294 292 290 291 291 290 290 289 289 288 288 287 288 290 290 291 293 295 295 296 296 295 296 297 297 297 298 299 299 298 297 298 300 300 300 301 297 298 296 297 297 297 298 296 296 296 297 296 297 297 298 298 298 296 295
311 308 307 306 305 305 305 306 304 304 304 304 305 304 304 303 302 300 297 297 296 293 291 290 290 291 291 291 292 292 292 291 290 290 290 290 289 288 288 290 288 288 289 293 291 291 292 294 294 295 296 296 295 296 295 297 297 298 298 300 300 301 301 303 302 300 298 297 297 297 297 298 297 297 297 297 298 298 296 296 297 296 296 296 295
310 301 294 298 306 305 305 305 304 304 305 305 304 303 304 303 302 301 300 298 298 297 297 297 292 290 294 292 291 290 290 290 290 290 289 289 288 288 289 291 289 289 290 294 295 295 295 296 295 296 296 295 295 295 296 298 299 299 300 300 300 301 301 300 298 300 299 300 299 298 297 297 299 298 297 297 297 297 296 296 296 297 297 295 295
311 308 306 303 306 306 305 305 304 304 305 306 306 304 303 302 302 302 301 300 300 299 299 299 299 292 290 292 291 290 289 289 290 290 289 288 288 288 292 292 291 293 294 296 296 297 297 298 297 297 297 296 297 297 298 299 299 301 301 301 298 300 300 299 297 299 297 297 297 296 297 298 298 297 297 298 299 296 297 297 297 296 295 295 295
312 309 307 306 306 306 305 305 306 306 300 303 303 303 303 303 304 304 303 303 301 301 300 300 300 297 292 295 293 290 289 290 290 289 289 289 288 292 297 297 296 297 297 299 299 299 298 299 299 298 298 297 297 298 300 300 300 301 298 300 300 300 299 299 298 296 297 297 297 297 298 297 298 298 297 296 296 297 297 296 295 295 294 293 291
313 310 309 308 309 308 307 306 306 297 302 304 304 304 304 305 305 305 304 304 302 301 302 301 296 299 296 297 298 296 293 289 289 289 289 288 289 293 297 298 298 299 299 300 300 300 300 299 299 298 298 298 298 299 300 300 300 301 301 301 300 299 295 297 295 297 296 297 296 297 297 297 298 298 297 297 296 296 296 296 296 296 295 293 294
313 300 296 295 299 309 308 306 303 303 303 303 304 305 302 305 304 305 304 305 302 302 301 302 301 300 300 299 298 297 294 294 292 293 293 293 294 295 297 299 300 300 301 301 301 300 300 299 298 298 298 299 299 300 300 301 301 300 301 300 299 299 298 299 298 297 297 298 298 298 298 298 298 298 298 297 297 297 297 296 295 295 295 295 295
313 310 299 294 304 305 305 304 303 303 301 303 305 305 304 303 304 305 304 304 303 302 303 302 301 301 299 299 297 297 295 295 295 295 296 295 296 298 299 298 299 300 301 302 301 301 301 300 298 298 298 299 300 300 301 301 301 300 300 299 299 299 299 298 299 298 297 297 298 298 298 297 298 298 298 298 298 298 297 296 296 295 295 295 295
313 309 298 298 301 305 303 303 303 304 303 302 305 306 305 303 304 305 305 304 302 302 303 302 302 302 300 299 293 294 297 297 297 298 298 296 297 298 299 299 299 301 302 301 301 302 301 300 299 299 300 300 301 301 302 302 301 299 300 298 299 298 299 298 297 298 298 297 297 297 298 298 298 298 297 298 296 297 297 297 297 297 296 296 296
310 306 304 304 304 305 303 301 302 301 301 303 305 306 303 302 304 304 302 302 301 302 302 302 301 300 296 292 291 292 297 299 300 300 301 300 299 299 299 301 302 302 302 302 302 302 301 300 300 300 300 299 300 300 301 301 301 300 300 299 299 299 298 299 298 298 297 298 297 297 298 298 298 298 298 295 297 298 298 298 298 297 297 296 296
307 306 306 303 304 304 304 304 303 302 301 302 302 298 301 304 304 303 303 302 303 301 301 300 300 301 298 290 291 289 297 300 295 299 300 300 300 299 300 301 302 302 303 303 302 302 301 300 299 300 300 301 302 298 300 299 300 299 298 299 299 299 299 298 298 298 298 298 298 298 298 298 298 299 299 298 298 298 298 297 296 297 296 296 296
307 306 304 303 304 305 304 304 302 300 299 297 300 301 304 304 304 304 304 302 302 301 301 301 301 301 300 295 292 294 298 299 300 300 300 299 300 300 301 302 302 303 303 302 302 302 301 301 300 300 302 302 303 304 304 303 302 300 300 299 299 298 299 299 299 299 299 299 298 298 298 298 298 299 297 297 298 297 297 297 296 296 296 297 296
308 307 304 304 305 304 303 302 301 300 297 297 300 302 301 303 303 304 302 303 300 302 301 300 300 299 297 296 296 296 297 297 296 298 298 299 300 302 303 303 303 303 303 303 303 303 302 301 300 298 297 299 303 303 304 304 305 304 302 300 299 299 299 299 300 300 300 299 300 299 299 299 298 299 299 299 297 297 297 297 297 294 295 295 295
306 305 303 305 304 303 302 304 299 303 301 301 302 302 302 303 303 303 301 302 301 301 302 300 299 298 298 297 296 294 296 297 297 298 298 300 302 301 302 302 302 303 302 302 302 303 301 301 299 298 298 298 301 302 304 305 305 306 306 306 305 303 303 303 303 301 301 299 300 300 299 299 299 297 296 298 299 298 297 297 296 296 296 295 295
306 305 303 303 304 303 302 304 302 303 302 301 301 302 302 302 303 301 299 302 302 299 300 300 300 299 299 299 299 297 296 295 297 297 299 301 301 301 301 302 302 302 302 302 304 301 300 299 298 297 297 299 301 304 305 305 305 305 305 306 306 306 305 304 304 304 301 302 300 300 299 298 298 298 297 297 297 297 296 296 296 295 295 295 296
307 305 305 304 306 304 304 303 302 296 301 301 302 301 301 302 302 301 302 301 300 300 300 301 300 299 299 298 298 299 297 297 297 298 300 301 301 302 302 302 299 302 302 301 301 301 298 299 300 300 298 298 298 301 304 305 305 305 305 305 305 306 304 300 306 306 302 302 298 298 298 298 297 297 297 297 296 297 296 297 296 297 296 296 296
307 307 305 305 304 303 302 301 300 301 302 302 301 302 301 302 302 303 302 302 301 300 300 298 298 298 299 300 300 299 299 297 299 299 300 300 301 302 303 303 301 302 300 301 301 301 302 303 301 300 302 299 302 303 303 305 304 305 305 305 303 296 294 294 299 303 300 297 299 299 299 298 297 295 295 295 295 295 296 295 295 295 296 295 296
306 304 305 305 303 303 303 303 303 303 302 303 303 302 301 302 302 301 301 300 299 298 298 299 299 300 300 300 298 299 299 298 299 299 300 301 301 302 302 302 302 302 301 300 301 301 302 303 304 303 300 303 303 305 305 304 305 305 305 305 297 293 292 290 290 292 297 298 298 297 298 298 297 297 297 297 296 295 294 295 294 294 295 295 295
304 306 305 304 305 304 304 305 304 304 304 303 304 304 302 302 302 301 300 300 298 298 298 299 300 300 300 300 298 300 299 299 299 300 300 301 302 302 302 302 302 302 303 302 303 303 305 304 301 303 302 300 301 303 304 304 305 304 300 297 292 290 290 290 295 290 289 292 296 297 296 296 296 296 296 297 297 297 295 294 295 295 295 296 295
Wind_Speed
16 14 12 10 12 13 11 10 11 9 10 10 10 10 9 9 8 9 9 9 10 9 9 10 9 9 10 9 9 9 8 8 7 6 6 6 6 7 7 7 7 7 7 7 7 7 7 7 7 6 5 4 4 4 4 4 3 4 4 3 4 3 5 5 6 6 6 6 7 8 8 10 10 10 12 12 12 12 14 14 15 14 14 14 15
14 14 13 11 11 11 12 10 10 9 10 10 10 10 9 8 9 9 10 10 10 10 10 9 9 10 9 10 9 9 9 8 7 6 7 7 7 5 6 7 8 7 7 7 7 5 6 7 7 6 5 5 5 5 4 4 4 4 4 4 4 4 4 5 5 6 8 7 8 8 8 9 10 11 12 12 13 14 15 14 13 14 14 14 14
13 11 11 11 10 10 11 11 10 11 12 10 11 10 9 9 9 10 9 9 9 10 10 10 10 10 10 9 9 9 9 8 7 7 7 8 7 7 7 7 7 7 7 7 7 6 6 5 5 4 3 4 4 4 4 3 3 4 3 3 3 4 4 4 5 7 8 8 8 9 9 9 10 11 12 11 12 14 15 14 15 14 13 14 15
13 10 11 9 11 11 11 10 11 11 11 10 11 11 9 9 9 10 10 9 10 9 10 10 10 10 10 10 9 9 9 8 8 8 8 8 8 8 8 8 7 7 7 7 6 5 6 5 4 4 4 4 4 4 4 3 3 3 3 2 2 4 3 4 4 5 7 8 8 9 9 10 9 11 10 11 13 13 13 14 15 15 15 14 15
14 12 12 11 11 11 11 11 12 12 11 10 12 11 10 9 9 10 10 10 10 10 10 10 10 10 9 10 10 9 9 9 9 8 8 7 8 8 8 8 7 7 7 6 6 5 5 5 5 4 4 4 4 3 4 4 3 4 4 3 4 4 4 4 5 6 7 8 8 7 8 9 9 10 11 13 13 13 13 15 15 16 15 15 13
15 13 12 13 13 13 12 12 12 12 11 11 12 11 10 9 10 9 10 11 10 10 10 10 9 10 10 10 9 9 9 9 9 9 9 8 8 8 8 8 8 8 7 6 6 5 4 4 4 4 4 4 4 3 3 4 3 4 5 5 5 5 5 5 5 6 7 7 8 8 8 9 10 9 12 13 13 14 14 14 15 15 15 15 13
15 13 14 14 14 14 12 13 12 12 11 11 11 10 10 10 10 10 10 11 11 10 10 10 9 9 10 9 10 10 9 9 9 9 9 9 8 8 8 8 8 7 6 6 5 5 4 4 4 4 4 4 4 4 4 3 3 4 5 5 5 6 5 5 6 6 7 8 7 8 9 8 9 11 12 12 13 14 16 16 15 13 14 15 15
13 13 13 13 13 14 13 12 12 11 10 11 11 11 10 10 10 10 10 11 11 11 11 10 9 9 9 9 9 9 9 9 9 9 9 8 8 8 8 8 8 7 7 6 5 4 4 4 4 5 5 5 5 5 5 4 3 4 5 5 5 6 6 6 6 6 7 7 8 9 9 9 9 10 11 12 13 13 13 14 17 17 16 15 14
15 14 14 13 13 13 12 11 11 11 11 11 11 11 11 10 10 10 10 10 9 10 10 10 10 10 10 9 10 9 9 8 8 8 9 9 8 8 8 8 8 7 7 6 5 4 4 4 4 5 5 5 5 4 4 5 5 4 5 5 5 6 6 6 6 7 7 7 8 8 9 9 10 11 12 12 14 15 16 15 15 15 16 15 14
13 14 14 13 12 12 12 11 11 11 11 11 11 11 11 11 10 11 11 10 10 10 10 10 10 10 10 10 9 8 8 7 7 7 8 8 8 7 7 7 7 7 6 6 5 4 4 5 5 6 6 6 5 3 2 1 4 5 5 5 5 5 5 6 6 7 8 8 8 9 10 10 11 12 11 13 13 14 15 15 16 16 16 14 12
12 14 13 12 12 12 11 11 11 12 11 11 11 11 12 10 11 11 11 10 10 10 10 11 10 10 10 10 10 8 8 6 10 5 2 4 7 7 7 7 6 6 6 5 5 5 4 4 5 7 8 9 7 8 6 6 3 3 4 5 5 5 6 7 7 7 8 8 8 9 9 11 11 11 11 13 13 14 14 15 15 15 15 17 17
12 12 13 12 12 12 11 12 12 12 12 11 11 11 11 11 11 11 11 11 10 10 10 11 10 10 9 10 9 8 8 11 11 6 4 2 3 6 6 6 5 5 5 5 4 4 4 3 3 2 3 3 1 7 9 8 8 8 9 7 7 5 6 4 5 6 8 7 8 9 9 10 11 11 11 12 13 14 14 14 14 15 16 16 15
12 12 12 13 12 11 11 12 12 12 12 12 11 11 11 12 12 11 11 11 10 11 11 11 10 10 10 10 10 9 7 14 12 9 6 6 5 5 6 5 5 5 4 4 3 3 4 4 3 2 3 7 7 2 1 5 10 10 11 12 10 10 10 10 9 3 6 6 8 9 9 10 11 11 12 13 13 14 14 14 14 14 15 16 15
13 12 12 13 12 11 11 12 12 12 12 12 11 11 12 12 11 10 10 10 10 10 11 11 10 10 10 10 9 9 8 14 12 10 8 7 7 8 4 5 4 5 5 4 3 3 3 3 3 3 2 2 3 2 1 2 2 1 0 2 3 11 12 11 11 11 9 5 7 8 9 9 9 10 11 12 12 13 14 14 15 15 16 16 17
12 12 13 13 12 12 12 12 12 12 12 12 11 12 12 12 12 10 10 10 10 10 11 11 10 10 10 10 9 9 7 15 12 11 10 9 8 8 4 4 4 5 5 4 4 3 2 2 1 2 3 2 4 4 5 3 2 1 2 2 3 3 5 6 7 6 5 5 6 7 8 8 8 10 10 10 11 12 13 15 15 15 15 15 13
12 11 12 12 13 12 13 12 12 12 12 11 12 13 12 11 11 10 9 9 9 9 9 9 10 10 10 10 8 9 8 16 13 12 11 10 8 7 6 5 5 5 5 5 5 4 4 3 3 2 2 3 4 2 6 7 3 2 2 2 2 2 3 4 1 2 3 5 6 7 7 8 10 10 10 10 10 12 13 12 12 13 14 14 14
14 13 12 13 13 13 13 13 12 12 12 12 12 12 12 11 10 9 9 9 9 9 9 9 9 9 10 10 9 9 8 11 12 11 10 10 8 8 6 5 5 6 5 5 5 4 4 4 3 2 3 3 4 3 8 9 4 3 3 3 3 3 5 2 9 11 10 11 12 13 15 15 15 15 15 15 11 11 11 12 13 14 14 15 14
15 15 14 12 12 12 12 13 13 12 11 12 12 10 10 9 9 8 9 9 8 8 8 8 9 9 10 10 9 8 8 10 12 11 11 12 11 9 7 7 6 5 5 5 5 4 3 5 6 2 2 3 5 4 7 8 3 3 3 4 4 4 5 6 6 5 5 8 10 12 14 14 13 13 11 9 11 10 11 12 14 13 13 14 15
12 13 12 11 10 11 12 12 13 12 12 12 11 11 10 9 8 7 7 7 7 7 8 8 8 8 9 10 9 9 8 10 12 13 12 15 12 10 8 7 7 7 6 6 6 4 5 5 4 5 4 5 3 4 6 8 4 3 3 3 4 5 6 7 7 8 9 10 9 10 9 9 10 11 11 11 10 10 11 11 12 12 13 14 14
14 13 13 13 12 11 10 11 11 11 12 11 10 11 9 8 8 8 7 7 7 7 8 7 9 8 8 9 8 9 9 10 11 12 13 12 12 8 7 6 6 6 6 6 6 6 6 6 6 4 2 3 3 5 6 6 6 3 3 3 4 5 7 7 6 8 9 9 9 9 9 9 9 9 11 11 11 12 12 11 11 12 12 13 13
14 14 13 13 12 12 9 9 11 10 10 10 9 9 8 9 8 8 8 6 7 7 9 8 8 8 8 8 9 10 8 10 10 12 12 11 12 8 6 5 5 6 7 7 6 6 6 6 6 9 7 5 5 5 5 6 7 5 2 4 4 4 7 7 8 8 8 9 8 8 8 9 9 9 10 11 11 11 12 12 11 11 12 12 13
13 13 13 13 13 12 10 8 8 8 8 9 9 9 8 9 8 9 8 7 8 8 9 8 8 8 8 8 9 10 7 9 8 9 8 8 8 6 7 6 6 6 7 6 6 6 6 6 5 9 8 7 6 6 5 6 6 6 2 3 1 4 6 8 7 7 7 8 8 8 8 9 9 9 10 10 11 12 12 12 12 12 11 11 12
11 12 12 12 12 12 10 11 9 8 9 10 11 10 9 9 9 9 9 9 9 9 9 8 8 8 8 8 8 9 8 7 8 9 9 8 8 7 7 7 7 6 6 6 6 5 5 5 6 9 8 6 6 5 6 5 6 6 3 4 5 5 7 6 6 6 7 8 8 8 8 9 9 9 10 10 10 12 12 12 14 13 12 11 11
10 11 11 12 12 12 11 12 11 10 11 11 12 11 11 10 9 8 8 9 9 9 9 8 8 9 9 9 8 8 7 8 8 9 9 10 8 8 6 8 8 7 6 6 5 5 5 5 5 9 6 6 6 6 6 6 6 2 3 5 6 7 7 6 5 6 7 7 8 8 8 8 9 9 10 10 10 11 11 12 13 14 13 12 12
14 14 14 13 13 12 12 12 13 12 12 12 12 11 11 10 9 8 9 9 9 9 9 9 9 8 9 9 8 8 8 7 7 7 8 9 8 7 6 5 7 6 6 7 6 2 6 7 6 4 5 6 7 6 7 10 12 11 9 8 7 7 5 5 5 6 7 7 7 8 8 8 8 9 9 10 11 11 10 10 12 13 13 13 12
14 14 13 12 13 13 13 13 12 12 13 11 11 9 10 10 10 9 10 9 9 9 9 9 9 8 8 8 9 8 8 8 8 8 8 7 7 8 7 6 5 6 8 7 9 5 2 3 3 4 7 7 6 6 7 3 9 11 11 9 7 6 4 5 5 6 7 7 7 7 7 8 8 9 10 10 11 12 11 11 11 11 12 12 13
13 12 12 11 10 10 12 11 11 11 11 10 10 10 10 11 11 11 10 10 9 9 9 9 9 9 9 9 9 9 8 8 8 8 9 8 7 7 7 6 6 4 6 8 7 6 4 5 4 3 6 4 6 7 8 5 6 8 9 9 8 4 3 4 5 6 6 6 6 7 7 8 8 9 10 11 12 12 12 11 11 12 12 12 12
13 13 14 12 11 11 12 13 13 11 11 11 11 11 11 12 11 11 11 10 9 9 9 9 10 9 9 8 9 9 9 9 9 9 10 10 10 9 8 8 7 7 8 8 8 7 7 6 5 7 7 8 7 8 8 8 7 6 4 3 4 4 4 7 9 7 5 4 6 6 7 7 8 9 10 11 11 12 12 11 11 12 12 12 12
13 15 14 13 12 11 10 12 11 10 11 11 10 10 11 11 9 8 8 8 9 9 9 9 9 9 9 10 10 10 9 10 11 10 10 10 9 9 8 8 7 7 6 2 6 7 6 6 7 8 8 8 7 7 6 5 5 4 4 5 4 4 4 4 4 5 4 5 6 6 7 8 8 9 10 10 11 11 11 11 12 13 13 12 12
14 14 13 12 12 12 10 11 11 10 11 11 10 9 7 8 9 9 9 9 11 11 11 10 10 9 9 9 9 10 10 9 11 12 11 12 9 9 6 8 7 3 8 5 3 5 7 6 7 6 8 7 5 5 4 5 4 4 4 2 4 5 4 4 5 4 3 5 6 5 7 6 8 8 10 10 10 11 11 11 12 13 14 14 13
12 12 13 12 12 12 11 11 11 10 10 10 10 9 8 6 3 1 2 12 11 10 9 7 9 10 9 9 8 3 5 11 16 14 13 12 11 8 6 9 10 10 9 5 3 6 5 5 5 5 5 7 4 4 4 4 4 3 5 4 4 4 3 5 5 4 4 3 3 5 5 7 7 8 9 10 10 11 10 10 10 12 12 13 12
11 11 11 10 11 11 10 11 10 10 9 10 10 10 10 10 7 5 5 8 10 10 11 11 12 11 10 8 8 6 7 12 15 15 14 13 12 11 9 9 9 9 8 4 4 5 6 6 6 5 6 5 4 6 4 4 4 5 4 4 3 3 3 4 3 5 3 4 4 4 5 5 8 7 9 10 9 10 10 10 10 11 10 11 11
12 11 10 10 11 11 10 11 10 10 10 11 10 10 10 10 11 9 3 4 7 8 7 8 12 13 12 7 9 10 11 9 12 13 13 13 12 11 9 7 8 7 8 4 5 6 6 8 8 8 7 6 7 7 7 7 7 6 5 4 3 4 6 4 3 6 4 4 4 5 5 5 6 8 6 7 8 8 8 8 10 10 10 10 10
13 11 11 11 12 11 10 11 11 10 9 10 10 10 10 10 10 9 9 7 4 1 3 6 9 10 10 10 10 7 11 14 12 12 12 12 11 10 10 6 7 9 7 7 6 7 8 8 8 8 7 7 6 6 7 7 7 7 6 6 6 6 6 6 6 6 4 4 4 4 5 6 7 7 7 7 7 8 7 7 8 7 8 9 8
11 10 12 11 10 11 10 10 10 9 10 10 10 11 10 10 10 10 11 11 10 10 10 8 7 10 9 8 8 9 7 9 12 11 10 10 11 12 11 7 4 4 6 8 9 8 8 9 9 8 7 7 7 7 6 7 7 6 6 6 6 6 6 5 6 6 5 6 4 5 5 7 9 8 7 7 7 7 8 7 7 8 10 8 7
11 10 10 9 7 7 8 9 10 10 11 11 10 10 9 9 10 10 10 10 10 10 9 9 9 9 11 8 10 10 9 8 9 10 11 12 13 15 7 5 5 8 9 10 10 10 10 9 8 8 7 7 7 7 7 7 6 6 6 6 4 6 6 6 6 6 4 4 5 5 7 6 7 7 6 7 9 7 7 7 7 6 8 7 7
11 10 11 11 11 10 10 10 11 11 10 9 9 9 9 10 10 10 10 10 11 10 9 8 8 7 8 8 10 10 11 10 10 9 10 12 15 11 8 8 8 8 10 10 11 10 10 9 9 8 8 8 8 7 7 7 6 6 6 7 7 7 7 5 5 5 5 6 6 6 7 7 7 6 6 6 7 7 7 7 6 6 6 6 8
11 11 12 13 11 11 11 10 10 9 9 9 9 9 10 11 11 11 11 11 11 10 10 10 10 9 10 11 13 9 8 7 7 6 7 8 8 8 9 9 9 10 10 10 10 9 9 9 8 8 8 8 9 8 7 7 7 7 6 7 6 5 5 5 5 7 5 5 7 7 6 6 6 5 5 6 6 7 7 6 6 6 6 6 6
10 12 14 15 12 11 10 10 9 10 10 9 10 10 11 11 11 11 11 11 11 11 11 11 11 11 10 10 10 10 10 8 7 7 7 7 9 9 9 9 10 10 11 10 10 9 9 9 8 8 8 8 8 8 8 8 7 7 7 5 5 5 5 5 6 6 6 6 6 6 6 5 5 6 6 7 6 6 6 6 6 6 6 6 6
10 9 11 15 10 10 9 9 9 10 9 10 10 10 10 10 10 11 11 11 11 11 11 12 11 10 9 10 10 11 10 10 10 8 8 8 8 10 10 10 11 11 11 11 10 9 9 8 8 8 9 9 9 9 8 8 7 5 6 5 5 6 6 6 6 6 6 6 6 6 6 6 7 6 6 6 6 6 6 6 6 6 5 5 6
9 10 11 12 10 10 9 9 9 10 9 10 9 10 10 10 10 10 11 11 10 11 11 11 10 9 10 10 14 14 11 10 10 10 10 9 9 10 11 10 11 11 11 11 10 9 9 8 9 9 9 9 9 9 8 8 6 5 5 5 5 6 6 6 6 7 7 7 7 7 7 7 7 7 7 6 7 7 6 6 6 5 5 5 5
9 9 11 10 10 10 9 10 9 10 9 10 10 9 9 10 10 10 10 10 9 9 9 8 7 7 10 16 17 18 12 10 10 10 10 10 10 10 10 10 10 11 11 10 10 9 9 9 9 9 7 7 6 7 7 8 6 5 5 5 5 6 6 6 6 6 6 7 7 7 7 7 7 6 7 8 6 5 5 5 5 5 5 5 5
9 10 10 10 11 10 10 10 9 10 9 10 10 10 10 10 10 10 9 9 8 8 8 8 7 8 9 14 16 17 11 11 10 11 10 10 9 9 9 9 9 10 10 10 9 9 9 9 7 7 6 8 9 6 6 5 5 5 5 5 6 6 6 6 6 6 6 7 8 7 6 6 6 6 6 5 5 5 5 5 5 5 5 5 5
9 9 9 10 10 9 7 7 8 8 8 8 8 9 9 9 9 9 9 9 9 8 9 9 8 9 7 8 9 9 10 9 8 7 7 7 7 6 8 8 9 9 9 9 9 10 9 7 6 6 8 8 8 8 8 7 6 5 5 6 6 6 6 6 7 7 8 8 8 8 8 7 7 7 6 6 5 5 5 5 5 5 5 5 5
8 8 8 9 9 8 8 8 8 8 8 7 8 8 8 8 8 8 8 8 9 9 9 8 8 8 7 8 8 9 8 8 7 7 7 8 8 8 9 9 9 9 9 9 9 10 9 6 5 5 5 5 8 8 8 8 8 8 6 6 6 7 7 7 7 7 7 7 7 8 8 8 7 6 7 7 6 6 6 6 5 7 5 6 5
8 8 8 9 9 8 9 8 9 9 9 9 9 8 7 7 8 8 8 8 8 8 8 8 7 7 8 8 8 8 8 8 8 9 8 8 8 8 9 9 9 9 7 7 7 9 6 5 5 5 5 5 7 8 8 8 8 8 9 9 8 8 9 8 7 6 6 6 7 7 7 6 6 6 7 6 6 6 6 6 5 5 6 6 6
9 8 8 9 9 9 9 9 9 8 9 9 8 7 8 10 9 9 9 9 8 8 8 8 8 8 8 9 9 9 9 8 7 8 8 8 8 8 8 8 6 7 6 8 8 5 5 6 5 5 5 5 6 8 8 8 8 8 8 9 9 9 9 6 7 7 5 5 5 5 5 5 6 6 5 6 6 6 6 6 6 6 6 6 6
8 8 8 8 8 8 9 8 9 9 8 8 9 10 10 9 9 9 8 9 9 8 8 7 7 7 7 7 8 8 8 8 8 8 8 7 8 8 8 7 5 5 5 5 5 5 5 5 6 6 6 5 5 7 8 8 8 9 9 10 10 10 9 8 8 6 4 3 4 4 5 5 6 6 6 5 6 6 6 7 6 6 6 6 5
7 7 7 8 8 8 8 8 8 9 10 10 10 10 9 9 9 8 8 8 8 7 6 6 6 6 7 8 8 7 7 7 7 7 7 7 7 7 7 7 6 8 5 5 5 5 6 7 6 5 5 5 8 8 8 8 9 9 10 10 10 11 7 3 6 8 5 3 4 4 5 5 6 6 6 6 6 6 7 7 7 6 6 6 6
7 7 7 8 8 8 8 9 9 10 10 9 9 9 9 9 8 7 7 6 6 6 6 7 7 7 8 8 8 8 7 7 7 7 7 7 7 7 7 8 7 7 5 5 5 5 7 7 8 6 6 5 7 8 8 8 9 9 9 9 4 6 6 7 6 5 5 5 5 5 5 6 6 6 6 6 6 6 7 7 7 6 7 7 7
7 7 7 7 8 8 8 8 8 8 8 8 8 8 8 8 7 7 6 7 7 7 7 6 6 7 7 8 9 9 8 8 7 7 8 8 8 7 8 8 8 9 9 9 9 8 8 8 5 5 5 6 5 8 8 8 8 8 8 5 6 8 8 7 4 8 9 8 5 5 6 7 6 7 7 6 6 6 6 7 6 6 7 7 7
Wind_Direction
166 166 169 162 146 146 145 147 144 144 147 148 149 145 141 141 140 142 144 145 145 145 141 138 139 139 137 138 137 136 132 130 129 130 125 122 118 122 127 121 114 108 107 103 98 91 89 90 89 84 78 73 76 77 63 62 63 56 39 33 30 20 3 344 340 335 345 343 327 329 328 327 325 331 330 330 327 329 325 325 324 322 322 322 321
174 167 167 153 146 144 148 146 144 145 146 149 148 143 143 141 141 146 147 147 151 145 144 141 143 142 139 140 141 137 137 133 136 133 131 130 129 133 127 117 113 111 107 103 99 95 93 91 89 81 71 71 62 55 50 57 54 46 47 25 27 8 6 337 337 333 334 335 331 328 328 337 323 332 333 331 329 328 326 327 324 327 325 323 322
177 166 145 143 141 145 146 149 150 151 152 153 149 147 143 142 149 149 151 150 152 150 145 148 145 144 144 145 144 142 141 140 139 141 140 142 138 131 123 118 116 116 112 107 106 106 105 100 94 89 86 82 74 68 60 47 39 48 32 25 14 356 348 335 326 335 329 328 330 329 333 331 327 331 333 331 329 326 326 329 330 326 325 325 324
173 157 140 132 143 151 153 152 154 157 158 155 152 149 144 147 153 153 151 154 154 151 151 150 149 150 149 149 147 148 146 144 148 149 147 141 139 131 124 120 116 115 115 115 114 110 104 102 96 96 90 79 67 68 56 42 47 36 21 14 10 1 342 325 330 319 321 319 333 330 332 327 331 330 331 332 333 330 329 326 326 324 324 324 325
174 166 142 141 151 154 153 156 162 164 161 155 152 149 146 152 156 155 153 158 155 155 156 153 155 155 155 155 153 153 153 155 153 150 142 142 134 130 124 116 115 114 112 109 111 110 106 94 93 89 83 80 72 62 51 35 33 32 11 10 6 0 340 333 331 328 321 322 324 327 327 329 328 329 336 337 334 330 329 328 328 326 325 327 324
173 157 147 153 159 158 158 163 165 164 160 154 154 153 150 155 156 158 160 158 157 161 158 159 162 158 160 158 157 156 158 158 155 152 147 141 136 128 122 120 117 118 121 120 115 110 105 98 91 83 77 71 64 51 42 33 27 21 16 2 360 352 338 335 333 330 325 328 328 329 337 335 333 335 342 339 334 332 331 330 327 326 327 327 329
167 154 158 163 164 162 164 168 164 162 159 156 156 156 153 157 161 162 163 160 162 163 162 163 163 162 161 159 159 160 158 159 155 152 150 146 139 133 127 123 123 121 122 122 120 111 104 96 88 78 70 69 61 41 25 26 20 18 15 2 356 347 341 345 339 335 337 336 334 338 335 338 336 337 342 338 336 336 333 332 329 331 329 330 331
160 157 161 165 163 163 166 165 159 157 157 156 158 160 155 161 165 160 163 164 165 168 167 164 164 165 161 163 160 160 159 158 155 155 154 149 143 138 134 132 127 127 125 125 124 119 109 101 87 74 68 55 46 45 28 12 6 19 15 4 355 348 348 347 345 345 346 343 342 342 341 336 341 341 336 338 340 337 340 332 328 330 332 332 333
166 161 165 164 164 162 160 158 155 155 156 158 159 162 159 164 162 162 165 166 169 169 168 165 165 167 162 166 161 163 165 160 160 163 156 153 149 144 142 137 135 135 138 133 133 129 114 92 80 80 79 72 47 37 20 340 352 13 13 6 357 354 351 348 351 351 349 346 346 345 339 341 345 343 341 347 345 339 332 331 325 327 329 328 332
163 160 166 163 161 159 154 152 156 155 157 159 161 163 160 161 164 165 169 168 170 170 169 169 170 168 167 164 165 164 166 169 145 156 164 157 155 148 145 145 144 142 141 140 138 134 124 108 103 113 141 153 149 159 176 301 314 343 3 6 359 358 358 354 357 357 350 349 351 343 342 341 345 343 341 342 336 332 330 331 329 330 329 330 327
164 159 158 156 155 152 148 151 154 157 158 160 160 163 161 163 167 169 169 169 170 170 174 173 175 172 170 169 165 172 170 150 118 141 130 167 158 155 153 150 146 147 146 150 147 149 154 137 135 173 183 176 166 168 174 202 220 246 261 293 332 351 3 360 3 360 353 347 347 345 341 338 341 340 343 339 337 333 330 329 328 331 334 335 335
161 156 152 153 154 152 151 155 158 158 160 161 161 163 160 164 170 171 168 170 170 172 177 177 176 174 172 172 171 172 178 124 150 146 166 208 235 165 158 152 159 156 157 160 157 159 152 147 122 93 39 22 331 168 180 185 198 209 210 214 214 250 296 343 353 2 353 344 341 343 339 342 333 339 342 337 335 326 328 327 332 331 331 332 332
160 152 151 156 157 155 155 159 162 162 164 162 162 161 162 169 172 171 171 171 172 177 180 179 178 176 177 176 177 174 169 140 155 165 173 199 262 266 158 164 169 162 161 168 161 166 168 163 154 136 118 221 243 29 24 171 195 214 223 196 205 199 202 222 244 301 337 329 335 333 345 336 333 339 337 332 324 324 326 329 331 327 328 327 328
160 154 154 158 156 155 157 161 163 165 164 163 162 164 168 173 172 172 171 171 178 179 182 182 178 179 180 178 180 178 167 149 159 170 178 196 226 264 170 175 180 168 174 164 174 169 188 186 167 158 138 114 42 341 3 346 2 20 253 91 158 187 198 203 208 220 236 312 331 332 336 338 334 330 332 326 327 327 326 324 325 326 329 326 320
160 161 162 160 156 157 162 164 165 163 163 162 165 169 172 172 172 173 172 174 179 183 182 184 183 181 183 181 180 181 153 148 163 169 181 186 210 247 231 183 199 184 185 179 193 173 180 187 193 145 143 88 43 354 323 332 352 11 23 33 47 49 47 36 22 13 4 343 331 331 329 336 332 328 324 327 325 321 319 315 316 327 321 317 320
154 153 156 158 158 160 163 164 164 160 161 163 168 171 172 170 171 170 172 176 181 183 182 186 183 185 185 183 180 180 132 154 160 175 177 187 189 214 229 214 217 200 193 188 196 188 198 205 194 157 152 121 107 278 290 304 310 9 25 17 32 57 60 112 169 237 275 313 319 316 319 306 297 292 292 296 309 319 316 310 326 330 328 333 335
171 165 165 165 163 165 166 162 160 161 162 163 167 168 168 167 168 167 172 176 179 182 182 184 184 188 184 185 179 179 142 154 158 170 176 175 185 212 216 220 221 214 205 193 207 197 206 215 211 177 177 127 128 258 271 282 297 4 12 9 23 26 25 57 191 206 225 241 252 261 262 266 266 267 269 270 267 295 314 329 340 337 336 337 337
170 166 164 160 158 163 167 165 161 163 165 169 169 162 158 159 163 164 170 168 173 179 181 182 183 185 183 183 183 181 160 151 159 165 173 173 201 204 201 214 216 216 206 203 218 203 141 45 313 241 192 133 142 237 272 277 302 7 359 352 16 15 17 2 351 346 312 279 249 238 244 250 260 268 272 279 293 291 338 336 337 334 338 338 336
163 161 159 155 154 160 167 166 165 168 172 174 168 162 163 164 158 158 159 161 168 177 183 180 177 177 181 185 174 182 164 152 170 170 178 185 201 214 208 204 197 195 206 201 214 218 176 187 233 320 5 98 148 243 269 289 309 13 341 343 359 16 8 348 346 337 333 329 333 336 331 333 336 340 342 330 319 329 343 336 335 339 336 335 334
177 169 159 158 160 161 160 157 158 163 169 170 167 168 163 156 157 159 158 167 172 175 178 180 177 178 175 181 171 192 172 169 174 179 183 190 212 234 215 221 204 193 208 210 202 215 204 190 162 189 157 159 231 237 259 281 308 345 336 354 354 4 346 328 334 324 315 314 320 326 332 338 342 339 345 343 345 347 343 342 337 334 332 331 334
169 165 162 163 163 157 147 147 149 155 161 159 158 156 159 159 154 158 158 169 172 173 175 175 176 172 173 181 183 194 186 180 163 179 184 191 208 229 243 233 214 208 210 214 215 208 207 208 190 159 194 199 224 227 246 251 282 300 325 3 359 345 308 312 321 298 303 314 323 330 336 339 342 344 345 345 345 345 340 338 338 333 329 330 332
157 157 161 163 162 161 153 135 136 145 153 153 155 158 160 157 157 159 166 166 167 167 169 172 175 175 177 184 191 194 181 186 161 171 181 189 206 227 250 229 244 229 215 216 217 217 209 207 179 154 183 201 219 224 234 239 251 266 49 52 350 294 290 302 298 315 318 325 332 329 337 336 341 342 344 342 342 341 334 333 336 335 328 327 329
147 153 154 153 157 157 150 151 155 160 164 162 162 165 164 164 164 167 168 166 167 165 169 175 178 177 178 184 187 193 179 164 137 160 178 190 189 211 250 282 353 284 242 221 223 225 214 206 122 140 171 198 224 225 239 244 234 248 215 215 237 257 261 283 312 307 324 327 323 333 333 338 338 339 343 342 339 335 329 329 329 330 328 327 328
148 155 157 159 159 157 155 161 166 169 167 170 174 172 171 169 166 168 171 171 172 173 175 178 183 180 181 182 182 182 182 177 150 173 171 189 187 193 221 256 293 262 262 242 233 232 215 212 127 143 175 203 227 232 239 231 262 358 211 231 246 253 264 291 309 330 321 320 330 334 337 337 336 338 341 335 332 323 322 326 326 327 331 332 329
168 169 166 165 163 163 166 173 176 172 171 174 178 174 165 163 169 176 179 185 183 179 176 179 184 184 184 184 183 182 183 184 167 164 160 173 190 183 189 221 248 278 275 249 251 245 57 67 105 174 203 218 236 243 241 236 241 252 255 253 248 263 269 320 324 327 322 329 334 333 332 339 337 336 330 325 326 337 335 331 327 325 331 333 331
171 169 161 155 157 160 165 170 172 172 172 177 177 172 169 173 179 181 186 187 182 180 177 178 184 185 187 186 184 180 176 182 177 169 173 169 179 181 177 174 224 243 271 313 352 357 6 354 316 259 238 232 231 228 242 215 205 224 232 228 248 259 304 315 328 318 325 326 330 331 336 334 336 331 328 339 347 352 344 334 330 334 336 336 336
162 155 151 147 144 155 160 167 170 173 175 176 178 177 178 183 187 184 187 183 180 182 180 179 185 187 187 184 179 177 179 185 188 173 177 175 184 174 178 175 178 225 250 239 235 242 212 229 263 278 292 298 273 293 294 271 227 218 228 221 233 261 285 319 325 317 311 316 322 330 327 329 325 332 348 349 352 352 349 336 335 335 336 336 336
160 159 156 154 160 167 171 161 164 170 176 180 184 187 187 188 187 185 185 181 177 181 183 182 187 188 184 178 177 182 183 186 191 183 179 181 183 181 182 181 186 204 219 225 226 225 226 203 226 239 234 231 229 231 230 231 234 242 253 272 280 269 253 232 238 254 265 307 319 317 325 327 333 338 342 348 349 348 349 341 338 337 338 338 341
162 163 162 163 166 166 167 163 175 170 172 179 188 188 184 183 182 179 182 177 180 178 181 187 190 186 186 183 183 185 191 192 194 190 182 177 174 174 176 183 186 197 199 332 238 215 226 233 231 229 231 233 239 243 239 234 240 245 243 256 270 291 291 318 314 310 325 317 319 326 321 327 330 332 342 343 342 338 344 338 342 348 348 350 347
167 165 166 167 167 167 169 167 173 170 172 178 183 186 177 180 187 182 180 187 184 184 178 190 187 184 190 197 191 191 194 195 161 163 156 163 181 180 163 162 164 132 126 123 283 245 227 231 235 233 236 237 236 241 249 255 262 263 271 268 270 269 300 298 284 291 330 315 308 308 320 319 317 331 339 338 333 333 335 334 344 351 352 354 353
163 165 168 171 167 170 171 170 174 174 176 177 180 178 171 162 64 51 229 177 177 177 182 168 164 186 190 190 190 110 122 139 150 153 155 173 183 182 138 124 127 125 132 143 204 233 248 242 243 246 246 250 249 247 250 255 255 260 261 265 276 291 273 270 284 297 289 294 301 303 304 310 318 324 325 324 325 320 323 332 333 347 348 352 348
159 163 165 163 155 165 167 166 169 172 174 177 179 179 174 177 183 121 82 165 169 170 170 164 171 184 198 202 181 147 121 142 157 161 172 172 183 187 179 156 149 149 165 201 229 227 231 240 245 247 246 245 246 251 254 258 258 253 254 256 259 267 276 269 278 287 287 286 297 299 302 306 309 312 313 313 308 310 322 324 325 341 336 340 341
164 162 163 155 157 165 165 165 170 173 175 177 183 183 182 182 181 179 96 73 150 158 170 183 185 190 193 190 174 178 162 154 159 168 174 181 183 189 176 161 152 148 130 174 220 233 236 238 240 242 243 244 247 250 248 247 246 249 255 259 263 260 261 277 288 269 275 279 289 292 295 296 300 303 303 309 315 320 317 316 323 333 334 334 336
165 163 162 157 161 168 171 167 168 173 177 179 182 181 185 185 184 174 173 170 145 138 201 203 202 197 199 190 182 180 163 164 170 170 174 175 169 154 149 147 143 165 197 218 216 229 238 240 242 243 248 250 252 250 250 250 253 255 255 256 260 265 268 270 266 264 270 272 271 281 290 297 308 309 313 312 312 313 314 315 321 327 331 333 332
166 151 146 153 164 168 172 171 170 171 178 182 183 185 186 187 184 182 184 184 189 192 197 201 205 198 199 202 209 194 165 162 172 176 169 158 153 149 134 130 150 188 221 233 238 235 236 237 241 243 243 246 244 246 247 249 250 249 251 251 256 262 273 276 278 283 279 277 283 288 301 305 301 305 305 307 311 310 309 308 315 324 325 325 326
166 159 155 151 152 159 166 169 175 180 185 186 186 184 180 178 182 189 188 188 188 190 193 197 195 186 193 198 193 199 193 176 170 176 177 162 153 148 164 187 185 199 208 214 220 228 236 241 241 241 242 241 243 241 240 242 243 246 248 253 256 263 267 271 272 271 275 285 288 289 288 287 295 298 302 304 308 310 310 316 322 319 314 312 324
166 159 163 169 173 172 174 175 182 185 181 175 172 174 179 186 192 193 192 193 193 191 189 180 175 159 178 202 191 192 194 188 188 179 169 165 164 176 205 198 207 209 216 220 218 222 226 231 234 240 241 244 242 241 239 241 245 247 249 256 265 267 268 275 287 290 288 282 284 287 288 288 289 291 292 296 299 303 307 315 314 309 306 306 296
175 169 171 172 174 174 176 181 178 153 159 173 181 183 189 193 194 197 197 198 192 191 190 185 182 186 186 203 184 194 177 171 141 138 144 157 174 205 214 222 223 226 225 224 218 218 224 230 231 231 233 234 236 236 237 240 243 249 252 252 255 263 262 274 262 255 249 262 269 267 267 272 277 285 292 297 302 302 304 304 308 310 308 299 301
181 163 161 163 172 174 175 174 166 172 178 181 189 193 194 196 193 198 199 197 191 197 201 200 197 202 194 181 169 176 161 176 191 198 184 190 195 202 214 221 226 231 234 230 222 218 226 228 227 229 232 233 233 236 239 243 246 251 255 258 260 265 254 255 260 260 255 258 261 269 277 286 296 300 303 302 298 297 295 298 293 293 300 304 309
180 159 154 156 171 172 172 167 166 174 180 187 192 196 191 196 195 196 198 199 196 198 202 206 201 195 182 163 162 167 184 190 194 200 197 197 198 205 210 219 225 229 226 227 229 224 222 229 230 227 227 231 234 238 241 245 249 252 256 256 259 255 252 259 269 270 267 264 267 274 283 288 289 292 294 293 297 299 298 294 294 292 289 291 296
179 162 152 166 168 163 165 164 169 178 177 188 194 192 195 193 197 197 200 201 198 195 200 202 194 185 184 170 157 170 188 197 200 202 198 192 198 205 210 216 223 228 224 227 229 229 228 228 229 227 227 229 233 236 241 246 250 254 256 257 254 256 262 265 264 269 267 268 269 271 275 281 285 288 291 296 298 290 281 282 283 288 292 293 293
163 148 158 167 160 173 171 175 175 174 177 185 195 199 195 194 198 200 200 200 193 190 190 191 191 194 168 158 164 177 196 210 209 211 210 200 201 209 212 215 218 225 229 230 230 228 228 227 228 228 228 230 235 245 250 253 255 256 255 250 250 250 254 260 258 254 257 262 262 264 267 271 280 286 282 279 279 280 282 286 294 296 294 294 294
157 157 164 166 175 181 180 177 174 176 183 189 199 204 204 198 199 198 195 196 192 191 194 192 193 194 172 171 174 179 201 214 219 216 217 208 202 206 208 213 220 227 231 234 233 231 226 224 226 229 232 235 238 241 240 246 249 251 251 246 244 244 247 255 262 261 256 254 257 259 255 260 262 261 267 268 270 278 282 284 280 281 285 286 286
161 162 164 169 180 181 179 168 170 176 182 187 193 195 198 199 200 198 199 193 199 195 203 203 197 191 175 158 165 180 204 211 217 214 212 211 209 211 217 223 228 229 230 230 231 230 229 225 222 227 231 236 238 243 247 249 248 245 247 249 244 236 240 245 250 257 260 268 273 276 271 260 256 267 270 264 263 267 269 268 271 276 280 288 294
165 169 167 173 178 177 176 177 180 183 185 185 199 201 201 205 201 201 200 200 195 199 202 204 195 185 169 162 175 187 196 202 207 217 220 223 227 229 230 231 230 230 229 228 227 225 225 225 222 224 228 238 245 247 247 247 247 245 239 237 247 245 236 235 240 248 256 257 260 262 265 269 268 266 270 271 268 261 263 264 262 267 270 274 278
172 174 174 179 178 182 181 183 184 187 186 190 191 196 192 211 213 203 198 202 192 193 193 188 186 184 185 184 185 185 194 198 205 214 222 228 229 232 236 237 235 230 226 226 226 223 220 219 218 221 219 227 237 242 243 245 244 244 245 244 238 237 243 247 243 240 241 243 249 262 268 267 263 268 270 277 279 276 276 277 276 270 268 271 268
172 179 176 184 183 183 186 183 185 188 183 178 186 190 201 211 206 198 196 198 192 190 198 194 193 194 198 201 196 187 188 192 205 212 220 228 231 235 237 237 232 229 226 225 226 221 213 217 221 220 222 226 234 240 247 246 244 243 240 243 247 246 246 246 244 239 240 239 244 253 261 267 268 268 257 252 259 257 256 255 258 257 257 262 271
175 179 179 184 184 183 183 184 180 176 181 183 198 205 206 204 200 199 195 191 197 196 197 187 184 185 191 202 208 196 183 187 198 214 224 229 230 231 233 232 230 232 233 230 223 221 218 214 215 217 217 220 226 239 243 247 249 252 254 250 248 246 247 249 254 254 245 242 241 244 244 250 257 260 264 264 262 270 270 268 264 262 256 253 253
180 180 179 183 189 186 182 177 175 179 194 198 196 203 204 205 204 198 195 188 184 177 172 169 178 189 200 210 211 199 181 182 193 205 220 229 232 237 233 228 226 233 235 231 226 218 219 222 220 217 214 217 220 226 233 240 247 250 251 253 250 242 232 191 244 251 275 266 253 254 254 252 251 253 255 257 258 258 258 260 263 265 269 267 268
181 182 185 187 190 190 189 194 194 196 195 200 195 199 198 200 197 190 179 167 164 172 182 188 197 201 205 204 203 199 192 191 196 207 218 223 221 225 229 226 220 227 231 230 231 227 222 222 218 215 218 221 223 227 235 238 243 247 248 250 226 139 156 170 209 238 240 242 246 244 246 244 244 245 247 244 244 240 246 251 252 259 262 265 262
184 187 186 188 187 193 191 191 190 195 194 198 200 198 193 195 196 188 180 175 179 186 192 194 199 204 208 212 210 207 203 207 208 215 222 228 226 223 223 225 216 219 225 229 232 232 230 228 225 215 214 219 224 234 238 241 240 242 244 244 150 161 163 176 212 201 214 240 247 244 239 239 238 241 243 246 245 246 244 251 258 259 267 268 271